Overview Statistics Trail Chart Weather Telemetry Raw packets
 

This is the latest recevied weather packets stored in our database for station/object KE6YLF. If no packets are shown the sender has not sent any weather packets the latest 10 day(s).

<< 108 109 110 111 112 113 114 >>
Time Temp. Humidity Pressure Rain* Wind** Luminosity Snow
1787868054 42.78° C 25% 1074.1 hPa 0 mm - - -
1787867750 41.67° C 26% 1074.4 hPa 0 mm - - -
1787867449 42.22° C 25% 1074.1 hPa 0 mm - - -
1787867141 42.78° C 25% 1074.4 hPa 0 mm - - -
1787866836 42.22° C 25% 1074.5 hPa 0 mm - - -
1787866531 42.78° C 25% 1074.9 hPa 0 mm - - -
1787866229 42.22° C 25% 1074.5 hPa 0 mm - - -
1787865925 42.78° C 25% 1074.7 hPa 0 mm - - -
1787865620 43.33° C 24% 1074.9 hPa 0 mm - - -
1787865320 42.78° C 25% 1075.1 hPa 0 mm - - -
1787865016 42.78° C 25% 1075.1 hPa 0 mm - - -
1787864711 42.78° C 24% 1075 hPa 0 mm - - -
1787864410 42.78° C 24% 1075.1 hPa 0 mm - - -
1787864105 42.78° C 25% 1075.3 hPa 0 mm - - -
1787863803 42.22° C 25% 1075.3 hPa 0 mm - - -
1787863502 42.78° C 24% 1075.3 hPa 0 mm - - -
1787863198 42.78° C 24% 1075.5 hPa 0 mm - - -
1787862894 42.78° C 24% 1075.5 hPa 0 mm - - -
1787862592 43.33° C 24% 1075.6 hPa 0 mm - - -
1787862283 43.33° C 24% 1075.6 hPa 0 mm - - -
1787861983 42.78° C 24% 1075.7 hPa 0 mm - - -
1787861678 42.78° C 24% 1075.7 hPa 0 mm - - -
1787861375 42.22° C 25% 1075.6 hPa 0 mm - - -
1787861071 41.67° C 25% 1075.9 hPa 0 mm - - -
1787860769 42.78° C 24% 1075.9 hPa 0 mm - - -

* Rain latest hour (hover to see other rain measurements)
** Current wind speed in m/s (hover to see current wind gust speed)